Flag for Germany Weather past 2 weeks in Radebeul, Saxony, Germany

Now
47 °F

Scattered clouds.


Feels Like: 46 °F
Forecast: 36 / 56 °F
Wind: 3 mph from Northwest

Location: Dresden-Klotzsche

Current Time: Apr 18, 2015 at 7:51:37 PM

Latest Report: Apr 18, 2015 at 7:00 PM


Visibility: 37 mi

Pressure: 30.23 "Hg

Humidity: 55%

Dew point: 31 °F

Location of RadebeulLocation

Historic Weather in Radebeul — Graph

°F

Radebeul temperature yesterday

Maximum temperature yesterday: 50 °F (at 1:00 PM)
Minimum temperature yesterday: 41 °F (at 10:00 PM)
Average temperature yesterday: 45 °F

Past Weeks' High & Low Weather Summary

 TemperatureHumidityPressure
High71 °F (Apr 15, 6:00 PM)100% (Apr 5, 6:00 AM)30.60 "Hg (Apr 5, 6:00 AM)
Low28 °F (Apr 5, 7:00 AM)28% (Apr 12, 3:00 PM)29.88 "Hg (Apr 15, 8:00 PM)
Average47 °F67%30.22 "Hg
* Reported Apr 3 7:00 PM — Apr 18 7:00 PM, Radebeul, Weather by CustomWeather, © 2015

Note: Actual official high and low records may vary slightly from our data, if they occured in-between our weather recording intervals... More about our weather records

Advertising

Radebeul weather history for previous 24 hours

 ConditionsComfort  
Time TempWeatherWind HumidityBarometerVisibility
7:00 PM
Sat, Apr 18
47 °FScattered clouds.3 mph55%30.23 "Hg37 mi
6:00 PM48 °FPartly sunny.5 mph48%30.23 "Hg37 mi
4:00 PM47 °FPartly sunny.5 mph59%30.25 "Hg40 mi
3:00 PM47 °FPartly sunny.6 mph56%30.27 "Hg40 mi
2:00 PM45 °FOvercast.5 mph60%30.28 "Hg37 mi
1:00 PM44 °FOvercast.6 mph67%30.29 "Hg37 mi
12:00 PM43 °FPartly sunny.5 mph61%30.29 "Hg37 mi
10:00 AM41 °FPartly sunny.6 mph77%30.27 "Hg31 mi
9:00 AM38 °FPartly sunny.5 mph80%30.26 "Hg19 mi
8:00 AM37 °FScattered clouds.3 mph88%30.24 "Hg16 mi
7:00 AM38 °FLow clouds.6 mph90%30.22 "Hg9 mi
6:00 AM37 °FOvercast.3 mph93%30.19 "Hg19 mi
4:00 AM38 °FOvercast.3 mph88%30.15 "Hg25 mi
3:00 AM39 °FOvercast.2 mph85%30.14 "Hg22 mi
2:00 AM39 °FOvercast.2 mph81%30.13 "Hg22 mi
1:00 AM38 °FPassing clouds.3 mph78%30.11 "Hg22 mi
12:00 AM41 °FPassing clouds.3 mph71%30.09 "Hg25 mi
11:00 PM
Fri, Apr 17
41 °FPassing clouds.2 mph74%30.07 "Hg28 mi
10:00 PM41 °FClear.2 mph76%30.06 "Hg28 mi
9:00 PM43 °FPassing clouds.3 mph71%30.04 "Hg31 mi
8:00 PM46 °FPartly sunny.3 mph67%30.01 "Hg34 mi
7:00 PM47 °FOvercast.6 mph58%29.99 "Hg37 mi
Weather by CustomWeather, © 2015

See weather overviewHow to use our weather pages